Location: North Runcton
(52.7000°N, 0.4333°E)
Time: 05:16:49
(UTC+00:00)

SL-8 Rocket - Pass Details

Date: 19 May 2025
Orbit: 957 x 988 km, 82.9° (Epoch: 12 April)

Event Time Altitude Azimuth Distance (km) Brightness Sun altitude
Rises 21:11:06 0° 349° (N) 3,661 8.2 -9.1°
Reaches altitude 10° 21:13:37 10° 350° (N) 2,707 7.4 -9.4°
Maximum altitude 21:19:50 85° 80° (E) 969 4.0 -9.9°
Enters shadow 21:25:59 10° 169° (S) 2,682 5.7 -10.5°
